アトラス彗星

C/2022 E2 ( ATLAS )

English version
Home page
Updated on September 2, 2023

---------------------------------------------------------------------

・ プロフィール

発見日 2022年3月7日
発見光度 18.7等
発見者 Asteroid Terrestrial-Impact Last Alert System (ATLAS) search program

・ 写真集

・ 軌道要素

Epoch 2023 Feb. 25.0 TT = JDT 2460000.5
T 2024 Sept. 13.92990 TT                                Rudenko
q   3.6670172            (2000.0)            P               Q
z  -0.0003035      Peri.   41.68039     -0.03478111     +0.83129362
 +/-0.0000010      Node   125.36380     +0.63768815     -0.40893772
e   1.0011131      Incl.  137.13636     +0.76950900     +0.37645830
>From 732 observations 2022 Feb. 23-2023 Mar. 20, mean residual 0".4.

・ 星図

・ 光度変化

        m1 = 2.2 + 5 logΔ + 12.5 log r

---------------------------------------------------------------------

軌道要素はM.P.E.C. 2023-F81に掲載されたものです。
星図はステラナビゲータ Ver.10 (アストロアーツ) で作成したものです。
光度グラフはComet for Windowsで作成したものです。

---------------------------------------------------------------------

Copyright(C) Seiichi Yoshida (comet@aerith.net). All rights reserved.